"Pseudo-MPEC" for P21TAVp

Created 2024 Apr 22 14:22:08 UT using Find_Orb

Click here for an explanation of pseudo-MPECs

 
 Astrometry: 
     P21TAVp* C2024 04 17)/n'H8[]41!U@G0BAstrometryDXf70+Z!:QoH95+XDy_llt*Z__F52
     P21TAVp  C2024 04 175%,yGredacted;PWhAgsh4-86GMuYKtrrflG+;6dG6fQmTM5M)W;F52
     P21TAVp  C2024 04 176I+7PpVUhNA4*BsE3^FIJQpclick$X_+aqGR@,iK3:'h\Ucq9,j^F52
     P21TAVp  C2024 04 17?Nhere^BR5lVn,/#cawo+H\E)$'8hRQNC5GKsCXc5hWu*@xm(P=3F51
     P21TAVp  C2024 04 17RS2\XmtFLNC;OH5rRaoc]y)5G1exq0T)$N)$1G:o+fv]NEFeDOTEF51
     P21TAVp |C2024 04 18;tc985$F\tH`u3-kNVPfor:,gBQgaPexplanationpu169%(N)Nl807
     P21TAVp |C2024 04 18?n%Q\fBdvL$)9!4ZQ2nH-A*5$2'w5P@fBcP?i.]/6=Un8Ie;0,EE807
     P21TAVp |C2024 04 18e2b!0?Ava^LZN[\1DM(J\Q=_XoWngit*D+#@[$.y,C5qglxQ/]Gg807
     P21TAVp |C2024 04 19,IxTkB)uf4x,IpeWoq_CB!whNQ7OxxpRi8[%IpesgP*6_uE'wBIw807
     P21TAVp |C2024 04 19JhyrfQhsA'.9,Xdq+Q5A$t=IU:E$ko$3nvTEeM@F54Rmx#R)YBJ]807
     P21TAVp |C2024 04 19pg`[+*c:H9HHXuB$0VVX.4d7m,b+W)k]ewgEQ*9TDaV6R'!c73qK807

Station data:
(807) Cerro Tololo Observatory, La Serena  (S30.169133 W70.805900)  Chile.
   Observer R. Holmes. 0.61-m f/6.5 astrograph + CCD.
(F51) Pan-STARRS 1, Haleakala  (N20.707234 W156.255910)  US/Hawaii.
   Observers J. Bulger, T. Lowe, A. Schultz, M. Willman. Measurers K.
   Chambers, S. Chastel, T. de Boer, L. Denneau, J. Fairlamb, H. Flewelling,
   M. Huber, C.-C. Lin, E. Magnier, Y. Ramanjooloo, R. Wainscoat, R. Weryk.
   1.8-m Ritchey-Chrétien + CCD.
(F52) Pan-STARRS 2, Haleakala  (N20.707382 W156.255910)  US/Hawaii.
   Observers J. Bulger, T. Dukes, T. Lowe, A. Schultz, M. Willman. Measurers
   K. Chambers, S. Chastel, T. de Boer, L. Denneau, J. Fairlamb, H.
   Flewelling, M. Huber, C.-C. Lin, E. Magnier, Y. Ramanjooloo, R. Wainscoat,
   R. Weryk. 1.8-m Ritchey-Chrétien + CCD.

Orbital elements:  P21TAVp
   Perihelion 2023 Jul 28.95901 +/- 20.8 TT = 23:00:58 (JD 2460154.45901)
Epoch 2024 Apr 19.0 TT = JDT 2460419.5   Earth MOID: 0.8212      AutoNEOCP
M 101.34778171 +/- 9                (J2000 ecliptic)
n   0.38238531 +/- 0.00895          Peri.   92.77679 +/- 5.6
a   1.87990214 +/- 0.0293           Node     3.99006 +/- 0.8
e   0.0909914 +/- 0.0286            Incl.   20.59741 +/- 1.0
P   2.58/941.44d           H 19.87  G  0.15   U  9.6
q 1.70884714 +/- 0.0345    Q 2.05095714 +/- 0.0825
From 11 observations 2024 Apr. 17-19 (42.2 hr); mean residual 0".23
Residuals in arcseconds: 
240417 F52  .16-  .14+    240417 F51  .13-  .01-    240419 807  .30-  .10+    
240417 F52  .10+  .04-    240418 807  .35+  .01+    240419 807  .22+  .56+    
240417 F52  .11+  .01+    240418 807  .03+  .48-    240419 807  .02+  .29-    
240417 F51  .09+  .04-    240418 807  .21-  .31-    

Ephemerides (geocentric):
Date (UTC) HH   RA             Dec           delta  r     elong  mag " sig PA
---- --------  ------------   ------------  ------ ------ -----  --- --------
2024 04 22 14  12 55 33.214   -25 12 13.31  .95690 1.9319 159.8 21.9 2.26 143
2024 04 22 15  12 55 29.096   -25 12 19.98  .95703 1.9319 159.8 21.9 2.30 144
2024 04 22 16  12 55 24.980   -25 12 26.61  .95716 1.9319 159.8 21.9 2.35 144
2024 04 22 17  12 55 20.867   -25 12 33.22  .95730 1.9320 159.7 21.9 2.39 144
2024 04 22 18  12 55 16.758   -25 12 39.80  .95743 1.9320 159.7 21.9 2.44 145
2024 04 22 19  12 55 12.651   -25 12 46.35  .95757 1.9321 159.7 21.9 2.48 145
2024 04 22 20  12 55 08.547   -25 12 52.87  .95770 1.9321 159.6 21.9 2.53 145
2024 04 22 21  12 55 04.446   -25 12 59.37  .95784 1.9322 159.6 21.9 2.57 145
2024 04 22 22  12 55 00.349   -25 13 05.83  .95798 1.9322 159.6 21.9 2.62 146
2024 04 22 23  12 54 56.254   -25 13 12.27  .95811 1.9323 159.5 21.9 2.67 146
2024 04 23 00  12 54 52.162   -25 13 18.69  .95825 1.9323 159.5 21.9 2.71 146
2024 04 23 01  12 54 48.074   -25 13 25.07  .95839 1.9323 159.5 21.9 2.76 147
2024 04 23 02  12 54 43.988   -25 13 31.43  .95853 1.9324 159.4 21.9 2.81 147
2024 04 23 03  12 54 39.905   -25 13 37.76  .95867 1.9324 159.4 21.9 2.86 147
2024 04 23 04  12 54 35.826   -25 13 44.06  .95880 1.9325 159.3 21.9 2.91 147
2024 04 23 05  12 54 31.749   -25 13 50.33  .95894 1.9325 159.3 21.9 2.96 148
2024 04 23 06  12 54 27.676   -25 13 56.58  .95908 1.9326 159.3 21.9 3.00 148
2024 04 23 07  12 54 23.606   -25 14 02.80  .95922 1.9326 159.2 21.9 3.05 148
2024 04 23 08  12 54 19.539   -25 14 08.99  .95936 1.9327 159.2 21.9 3.10 148
2024 04 23 09  12 54 15.475   -25 14 15.15  .95951 1.9327 159.2 21.9 3.16 149
2024 04 23 10  12 54 11.414   -25 14 21.29  .95965 1.9327 159.1 21.9 3.21 149
2024 04 23 11  12 54 07.356   -25 14 27.40  .95979 1.9328 159.1 21.9 3.26 149
2024 04 23 12  12 54 03.301   -25 14 33.48  .95993 1.9328 159.1 21.9 3.31 149
2024 04 23 13  12 53 59.249   -25 14 39.54  .96007 1.9329 159.0 21.9 3.36 150
2024 04 23 14  12 53 55.201   -25 14 45.57  .96022 1.9329 159.0 21.9 3.41 150
2024 04 23 15  12 53 51.156   -25 14 51.57  .96036 1.9330 159.0 21.9 3.47 150
2024 04 23 16  12 53 47.114   -25 14 57.54  .96050 1.9330 158.9 21.9 3.52 150
2024 04 23 17  12 53 43.075   -25 15 03.49  .96065 1.9330 158.9 21.9 3.57 151
2024 04 23 18  12 53 39.039   -25 15 09.41  .96079 1.9331 158.9 21.9 3.63 151
2024 04 23 19  12 53 35.006   -25 15 15.30  .96094 1.9331 158.8 21.9 3.68 151
2024 04 23 20  12 53 30.977   -25 15 21.17  .96108 1.9332 158.8 21.9 3.73 151
2024 04 23 21  12 53 26.951   -25 15 27.01  .96123 1.9332 158.8 21.9 3.79 152
2024 04 23 22  12 53 22.928   -25 15 32.83  .96137 1.9333 158.7 21.9 3.84 152
2024 04 23 23  12 53 18.908   -25 15 38.61  .96152 1.9333 158.7 21.9 3.90 152
2024 04 24 00  12 53 14.891   -25 15 44.37  .96167 1.9334 158.7 21.9 3.96 152
2024 04 24 01  12 53 10.878   -25 15 50.11  .96182 1.9334 158.6 21.9 4.01 153
2024 04 24 02  12 53 06.868   -25 15 55.81  .96196 1.9334 158.6 21.9 4.07 153
2024 04 24 03  12 53 02.861   -25 16 01.49  .96211 1.9335 158.6 21.9 4.13 153
2024 04 24 04  12 52 58.858   -25 16 07.15  .96226 1.9335 158.5 21.9 4.18 153
2024 04 24 05  12 52 54.857   -25 16 12.77  .96241 1.9336 158.5 21.9 4.24 154
2024 04 24 06  12 52 50.860   -25 16 18.38  .96256 1.9336 158.4 21.9 4.30 154
2024 04 24 07  12 52 46.867   -25 16 23.95  .96271 1.9337 158.4 21.9 4.36 154
2024 04 24 08  12 52 42.876   -25 16 29.50  .96286 1.9337 158.4 21.9 4.42 154
2024 04 24 09  12 52 38.889   -25 16 35.02  .96301 1.9338 158.3 21.9 4.48 155
2024 04 24 10  12 52 34.905   -25 16 40.52  .96316 1.9338 158.3 21.9 4.53 155
2024 04 24 11  12 52 30.925   -25 16 45.99  .96331 1.9338 158.3 21.9 4.59 155
2024 04 24 12  12 52 26.948   -25 16 51.43  .96346 1.9339 158.2 21.9 4.65 155
2024 04 24 13  12 52 22.974   -25 16 56.85  .96362 1.9339 158.2 21.9 4.72 155